Location: Invercargill
(46.4000°S, 168.3500°E)
Time: 18:18:21
(UTC+13:00)

Cosmos 2322 - Pass Details

Date: 04 October 2021
Orbit: 840 x 855 km, 71.0° (Epoch: 17 October)

Event Time Altitude Azimuth Distance (km) Brightness Sun altitude
Rises 20:20:18 0° 199° (SSW) 3,436 7.3 -4.5°
Reaches altitude 10° 20:25:01 10° 165° (SSE) 2,497 6.1 -5.2°
Maximum altitude 20:26:37 11° 148° (SSE) 2,417 5.9 -5.5°
Drops below altitude 10° 20:28:14 10° 131° (SE) 2,495 5.8 -5.8°
Enters shadow 20:31:29 - 105° (ESE) 3,059 6.1 -6.3°
